[[{"header":{"parameterUnit":"m.s-1","parameterCategory":1,"la1":30.2991,"la2":30.254,"lo1":-89.0895,"lo2":-89.0444,"dy":0.0017,"dx":0.0017,"nx":28,"ny":28,"refTime":"2025-01-06T03:00:00:Z","depth":0,"parameterNumber":2,"parameterNumberName":"U-component_of_WINDS"},"data":[0,0,0,0,0,0,0,0,0,0,0,0,0,0,0,0,0,0,0,0,0,0,0,0,0,0,0,0,0,0,0,0,0,0,0,0,0,0,0,0,0,0,0,0,0,0,0,0,0,0,0,0,0,0,0,0,0,0,0.1361,0.136,0,0.1299,0.1298,0.1298,0.1307,0.1308,0.1309,0.131,0.1243,0.124,0.1237,0,0,0,0,0,0,0,0,0,0,0,0,0,0.1484,0.1481,0.1361,0.136,0.1359,0.1299,0.1298,0.1298,0.1306,0.1308,0.1309,0.131,0.1244,0.124,0.1237,0,0,0,0,0,0,0,0,0,0,0,0,0,0.1427,0.1481,0.1361,0.1357,0.1356,0.1299,0.1298,0.1297,0.1306,0.1308,0.1309,0.1311,0.1245,0.1241,0.1237,0.118,0,0,0.1224,0.1222,0,0,0,0,0,0,0,0,0.143,0.1422,0.1358,0.1357,0.1356,0.1312,0.1317,0.1258,0.1306,0.1325,0.131,0.1312,0.1264,0.1259,0.1244,0.1176,0.1174,0.1224,0.1221,0.1219,0.1218,0,0,0,0,0,0,0,0.1434,0.1425,0.1336,0.1357,0.1356,0.1357,0.1351,0.1306,0.1286,0.1323,0.1324,0.1317,0.1264,0.1247,0.1242,0.1173,0.1224,0.122,0.1217,0.1216,0.1056,0.1055,0,0,0,0,0,0,0.144,0.1428,0.1338,0.1335,0.1398,0.1353,0.1346,0.1325,0.1287,0.1283,0.1315,0.1317,0.1254,0.1247,0.124,0.117,0.1219,0.1215,0.1213,0.1058,0.1056,0.1054,0,0,0,0,0,0,0.1442,0.1432,0.1341,0.1382,0.137,0.135,0.1325,0.1323,0.1306,0.1281,0.1277,0.1302,0.1255,0.1245,0.1195,0.1168,0.1214,0.121,0.106,0.1057,0.1055,0.1031,0,0,0,0,0,0,0.1446,0.1432,0.1411,0.1381,0.1368,0.1298,0.1323,0.132,0.1299,0.1301,0.1268,0.1264,0.1255,0.1201,0.1191,0.1163,0.1207,0.1062,0.1059,0.1056,0.1034,0.1028,0.1023,0,0,0,0,0,0.145,0.1406,0.141,0.1399,0.1341,0.1296,0.1288,0.1281,0.1297,0.1275,0.1259,0.1265,0.1173,0.1196,0.1184,0.1155,0.1064,0.106,0.1056,0.1037,0.1029,0.1023,0,0,0,0,0,0,0.1431,0.1402,0.1406,0.1351,0.1326,0.1298,0.1269,0.1273,0.1242,0.1245,0.1236,0.1228,0.1177,0.1161,0.1187,0.1098,0.1121,0.1114,0.111,0.1103,0.1097,0.1101,0.1203,0,0,0,0,0,0.1421,0.1388,0.1364,0.1317,0.1305,0.129,0.127,0.1266,0.124,0.1229,0.1209,0.1182,0.1148,0.1125,0.1091,0.1033,0.1025,0.1007,0.1002,0.0997,0.0991,0.0959,0.095,0.1041,0.1041,0.1041,0,0,0.1399,0.1379,0.1358,0.1313,0.1294,0.1259,0.128,0.1242,0.1216,0.1223,0.1174,0.1159,0.1128,0.1073,0.1048,0.1059,0.0965,0.0992,0.0989,0.0985,0.0954,0.0945,0.0938,0.1038,0.1039,0.1039,0,0,0.134,0.1322,0.1282,0.1262,0.1233,0.1223,0.1214,0.1185,0.1176,0.1127,0.1131,0.11,0.104,0.1019,0.1,0.0935,0.0939,0.0925,0.0894,0.0863,0.0856,0.0849,0.0826,0.0817,0.0919,0.0919,0.0919,0,0.1315,0.1264,0.126,0.1222,0.1202,0.1208,0.1167,0.1148,0.1109,0.1094,0.1107,0.1033,0.1013,0.0954,0.0938,0.0923,0.0911,0.0927,0.0858,0.0851,0.0845,0.0822,0.0813,0.0918,0.0918,0.0918,0.0918,0,0.1235,0.1199,0.117,0.1134,0.1111,0.1071,0.106,0.1038,0.1037,0.1026,0.0976,0.0953,0.0915,0.0901,0.0899,0.0841,0.0849,0.086,0.0882,0.0835,0.0813,0.0804,0.0915,0.0916,0.0916,0.0917,0,0,0.116,0.1124,0.1113,0.1097,0.1066,0.1038,0.0999,0.0964,0.0944,0.0918,0.0884,0.0835,0.0845,0.0824,0.082,0.0793,0.0743,0.0807,0.0806,0.0795,0.0677,0.0668,0.0658,0.0746,0.0745,0.0743,0.0679,0,0.1097,0.1029,0.1025,0.0963,0.093,0.0937,0.0903,0.088,0.0869,0.0839,0.0827,0.0792,0.0809,0.0796,0.077,0.0755,0.0719,0.0759,0.0713,0.0712,0.0719,0.0646,0.0636,0.0576,0.0671,0.0669,0.0668,0,0.1014,0.0987,0.0922,0.0897,0.0883,0.0853,0.082,0.0792,0.0767,0.0761,0.0738,0.0739,0.0698,0.0724,0.0667,0.0695,0.0676,0.0666,0.0664,0.0657,0.0686,0.0637,0.0557,0.0548,0.0655,0.0656,0.0657,0,0.0965,0.0912,0.0866,0.0852,0.0822,0.0801,0.0787,0.0764,0.0743,0.0715,0.0701,0.0669,0.065,0.0624,0.0616,0.0635,0.056,0.0584,0.0552,0.0552,0.0534,0.0535,0.0449,0.0525,0.0525,0.0525,0.0526,0,0.0894,0.0853,0.0844,0.0815,0.077,0.0767,0.0722,0.0709,0.0689,0.0658,0.0662,0.0633,0.0624,0.0593,0.0587,0.0541,0.0532,0.0526,0.0524,0.0524,0.0525,0.051,0.0513,0.0523,0.0524,0.0524,0.0524,0,0.083,0.0822,0.0772,0.0749,0.0742,0.071,0.069,0.0662,0.0653,0.0614,0.0605,0.059,0.0554,0.0544,0.05,0.0495,0.0441,0.0444,0.045,0.0449,0.0417,0.042,0.0317,0.0303,0.039,0.0389,0.0389,0,0.0784,0.0753,0.0728,0.0708,0.0694,0.0662,0.0641,0.0637,0.0615,0.0585,0.0561,0.0526,0.0498,0.044,0.0424,0.0391,0.0392,0.0359,0.0387,0.0389,0.039,0.0392,0.0388,0.0353,0.0352,0.0351,0.035,0,0.0704,0.0702,0.0673,0.0643,0.0619,0.0594,0.0571,0.0554,0.0547,0.0522,0.0486,0.0464,0.0421,0.0386,0.0353,0.0338,0.0342,0.0342,0.0333,0.0332,0.0336,0.0332,0.0433,0.0344,0.0345,0.0345,0.0345,0.0346,0.0646,0.0619,0.0598,0.0565,0.0548,0.0527,0.05,0.0489,0.0459,0.0424,0.0423,0.0384,0.036,0.0317,0.0301,0.0269,0.0279,0.0266,0.0262,0.0258,0.0255,0.0343,0.0263,0.0264,0.0264,0.0264,0.0264,0,0.0565,0.0552,0.0523,0.0491,0.0465,0.0475,0.045,0.0428,0.0393,0.0372,0.0344,0.0303,0.027,0.0253,0.022,0.0198,0.0199,0.0189,0.019,0.0186,0.0249,0.026,0.0189,0.0189,0.0189,0.0189,0.0189,0.0189,0.0519,0.0475,0.0471,0.0417,0.0404,0.0367,0.0352,0.0332,0.0315,0.0269,0.0242,0.0232,0.0212,0.0178,0.0148,0.0144,0.0131,0.0119,0.0116,0.0174,0.0182,0.0189,0.0199,0.0117,0.0117,0.0056,0.0055,0.0055]},{"header":{"parameterUnit":"m.s-1","parameterCategory":1,"la1":30.2991,"la2":30.254,"lo1":-89.0895,"lo2":-89.0444,"dy":0.0017,"dx":0.0017,"nx":28,"ny":28,"refTime":"2025-01-06T03:00:00:Z","depth":0,"parameterNumber":3,"parameterNumberName":"V-component_of_WINDS"},"data":[0,0,0,0,0,0,0,0,0,0,0,0,0,0,0,0,0,0,0,0,0,0,0,0,0,0,0,0,0,0,0,0,0,0,0,0,0,0,0,0,0,0,0,0,0,0,0,0,0,0,0,0,0,0,0,0,0,0,-7.2958,-7.2959,0,-7.3106,-7.3108,-7.3109,-7.301,-7.3005,-7.3001,-7.2996,-7.3143,-7.3151,-7.3159,0,0,0,0,0,0,0,0,0,0,0,0,0,-7.2582,-7.2589,-7.2957,-7.2959,-7.2961,-7.3106,-7.3108,-7.311,-7.301,-7.3005,-7.2999,-7.2994,-7.314,-7.315,-7.316,0,0,0,0,0,0,0,0,0,0,0,0,0,-7.2739,-7.2592,-7.2957,-7.2929,-7.2928,-7.3105,-7.3108,-7.311,-7.3012,-7.3005,-7.2998,-7.2992,-7.3137,-7.3149,-7.3161,-7.3372,0,0,-7.3198,-7.3204,0,0,0,0,0,0,0,0,-7.273,-7.2753,-7.2931,-7.2931,-7.2931,-7.3032,-7.3029,-7.3198,-7.3013,-7.298,-7.2996,-7.2988,-7.3111,-7.3125,-7.3168,-7.3379,-7.3386,-7.3199,-7.3207,-7.3212,-7.3216,0,0,0,0,0,0,0,-7.272,-7.2746,-7.3016,-7.2934,-7.2934,-7.2907,-7.2922,-7.3061,-7.3082,-7.2982,-7.2975,-7.2995,-7.311,-7.3156,-7.3171,-7.3388,-7.3199,-7.321,-7.3217,-7.3222,-7.3778,-7.3786,0,0,0,0,0,0,-7.2712,-7.2738,-7.3011,-7.302,-7.2812,-7.292,-7.2936,-7.3007,-7.308,-7.3085,-7.3,-7.2989,-7.3139,-7.3156,-7.3175,-7.3427,-7.3212,-7.3223,-7.323,-7.3771,-7.378,-7.3788,0,0,0,0,0,0,-7.2704,-7.2737,-7.3005,-7.2877,-7.2909,-7.2933,-7.3013,-7.3013,-7.306,-7.3094,-7.3096,-7.3044,-7.3134,-7.3158,-7.3324,-7.3431,-7.3229,-7.324,-7.3762,-7.3774,-7.3784,-7.3933,0,0,0,0,0,0,-7.2694,-7.2735,-7.2817,-7.288,-7.2917,-7.3154,-7.302,-7.3021,-7.3082,-7.3069,-7.3136,-7.314,-7.3131,-7.3307,-7.3336,-7.3444,-7.325,-7.3753,-7.3767,-7.3781,-7.3919,-7.3948,-7.3973,0,0,0,0,0,-7.2681,-7.2852,-7.2822,-7.2856,-7.302,-7.3161,-7.3181,-7.3168,-7.3091,-7.3172,-7.3194,-7.3138,-7.3414,-7.3325,-7.3357,-7.347,-7.3746,-7.3763,-7.378,-7.3907,-7.3942,-7.3973,0,0,0,0,0,0,-7.28,-7.286,-7.2827,-7.3024,-7.3088,-7.3143,-7.3246,-7.3207,-7.3293,-7.3277,-7.3255,-7.3271,-7.3445,-7.3474,-7.3373,-7.3678,-7.3568,-7.3592,-7.3653,-7.3687,-7.3714,-7.3703,-7.326,0,0,0,0,0,-7.2849,-7.296,-7.3006,-7.3175,-7.3209,-7.3223,-7.3283,-7.3268,-7.3332,-7.3358,-7.3392,-7.3456,-7.3556,-7.3623,-7.3718,-7.3922,-7.3935,-7.4016,-7.4043,-7.4065,-7.4086,-7.4195,-7.4232,-7.3843,-7.3843,-7.3843,0,0,-7.2952,-7.2999,-7.307,-7.3201,-7.3248,-7.3362,-7.3246,-7.3371,-7.3455,-7.3377,-7.3536,-7.3563,-7.3632,-7.3818,-7.3902,-7.3848,-7.4196,-7.4086,-7.4104,-7.4113,-7.4216,-7.4253,-7.4286,-7.3855,-7.3853,-7.3851,0,0,-7.3198,-7.3245,-7.3391,-7.3442,-7.3516,-7.3523,-7.3558,-7.362,-7.3635,-7.3795,-7.3739,-7.3837,-7.4011,-7.4063,-7.4112,-7.4376,-7.4327,-7.4407,-7.4549,-7.4656,-7.4686,-7.4713,-7.4807,-7.4841,-7.4428,-7.4428,-7.4428,0,-7.3316,-7.3487,-7.3471,-7.3601,-7.3659,-7.3595,-7.3742,-7.3791,-7.3892,-7.3933,-7.3871,-7.4088,-7.413,-7.4327,-7.4392,-7.4434,-7.4472,-7.44,-7.4684,-7.471,-7.4735,-7.4825,-7.486,-7.4437,-7.4436,-7.4435,-7.4435,0,-7.3628,-7.3747,-7.3856,-7.3957,-7.4027,-7.4165,-7.4168,-7.4241,-7.4219,-7.4233,-7.4395,-7.4443,-7.4546,-7.4592,-7.4571,-7.4786,-7.475,-7.4686,-7.4575,-7.4782,-7.4865,-7.4899,-7.4451,-7.4447,-7.4445,-7.4442,0,0,-7.3954,-7.4044,-7.4084,-7.4129,-7.4206,-7.4297,-7.443,-7.4533,-7.4595,-7.4666,-7.4777,-7.4926,-7.4868,-7.4923,-7.4907,-7.5001,-7.5207,-7.4926,-7.4927,-7.4976,-7.5446,-7.5493,-7.5533,-7.5175,-7.5181,-7.5186,-7.544,0,-7.4204,-7.444,-7.4429,-7.4649,-7.4758,-7.4698,-7.4814,-7.4873,-7.4889,-7.4982,-7.4998,-7.5104,-7.5019,-7.5052,-7.5142,-7.5163,-7.5301,-7.5144,-7.5276,-7.5281,-7.5262,-7.5577,-7.5628,-7.5865,-7.5472,-7.5478,-7.5482,0,-7.4528,-7.4612,-7.4843,-7.4903,-7.4948,-7.5054,-7.5146,-7.5236,-7.5301,-7.5305,-7.5368,-7.5336,-7.5469,-7.5355,-7.5537,-7.5431,-7.5484,-7.5502,-7.551,-7.5522,-7.5394,-7.5597,-7.594,-7.5976,-7.5533,-7.5529,-7.5525,0,-7.4742,-7.4913,-7.5073,-7.5113,-7.5187,-7.5262,-7.5296,-7.5354,-7.5416,-7.5496,-7.5536,-7.563,-7.5681,-7.5753,-7.5747,-7.5664,-7.5932,-7.5817,-7.5939,-7.5939,-7.5998,-7.5995,-7.6354,-7.6032,-7.6032,-7.6031,-7.603,0,-7.5023,-7.5167,-7.5171,-7.5269,-7.5428,-7.5413,-7.557,-7.5595,-7.5647,-7.5748,-7.5701,-7.5796,-7.5782,-7.5878,-7.5873,-7.6024,-7.6048,-7.6054,-7.6051,-7.6059,-7.6058,-7.6093,-7.6077,-7.604,-7.6038,-7.6037,-7.6035,0,-7.529,-7.5298,-7.5469,-7.5525,-7.5543,-7.5657,-7.5704,-7.5797,-7.5808,-7.5937,-7.5966,-7.5983,-7.6093,-7.6094,-7.6218,-7.6215,-7.64,-7.6379,-7.638,-7.6375,-7.6497,-7.6486,-7.6892,-7.6944,-7.6588,-7.6592,-7.6595,0,-7.5469,-7.5578,-7.5646,-7.5712,-7.5751,-7.5856,-7.592,-7.5908,-7.5976,-7.6057,-7.6139,-7.6245,-7.6328,-7.6506,-7.6528,-7.6623,-7.6603,-7.6739,-7.6617,-7.6621,-7.6605,-7.6599,-7.6609,-7.6763,-7.6767,-7.677,-7.6773,0,-7.5785,-7.5784,-7.5878,-7.5974,-7.6052,-7.6126,-7.6195,-7.625,-7.6246,-7.6324,-7.6436,-7.6502,-7.6629,-7.6734,-7.6826,-7.6857,-7.6815,-7.6811,-7.6844,-7.6853,-7.6849,-7.6853,-7.6445,-7.6802,-7.6799,-7.6797,-7.6795,-7.6794,-7.6013,-7.6108,-7.6171,-7.6277,-7.6328,-7.6393,-7.6483,-7.6506,-7.66,-7.6705,-7.6691,-7.6816,-7.6875,-7.6994,-7.7035,-7.7131,-7.7083,-7.7131,-7.7143,-7.7155,-7.7169,-7.6834,-7.7147,-7.7146,-7.7145,-7.7145,-7.7144,0,-7.6328,-7.6365,-7.6463,-7.6562,-7.6645,-7.6598,-7.6672,-7.6744,-7.6855,-7.6915,-7.6999,-7.7127,-7.7229,-7.7259,-7.7356,-7.7427,-7.741,-7.7453,-7.7448,-7.7456,-7.7206,-7.7168,-7.7466,-7.7466,-7.7466,-7.7465,-7.7465,-7.7465,-7.6501,-7.6658,-7.6664,-7.6845,-7.6881,-7.7005,-7.7051,-7.711,-7.7158,-7.7304,-7.7389,-7.7408,-7.7456,-7.7556,-7.7646,-7.7652,-7.769,-7.7742,-7.774,-7.7506,-7.7474,-7.7443,-7.7407,-7.775,-7.775,-7.7982,-7.7984,-7.7985]}]]